METEOR 1-25

Satellite information

Favourite Embed

Satellite Type and Status

PAYLOADIN ORBIT

Key statistics

Satellite METEOR 1-25 at a glance.

Uptime

18109

Days in orbit

Revolutions

≈ 14.1

Per day

Orbit

LEO

Low Earth Orbit

Inclination

81.3

Latest

Satellite identification and parameters

Extended collection of information and parameters for METEOR 1-25.

Object identification

Identified? True

Debris? False

Object name: METEOR 1-25

International designator: 1976-043A

Object number (NORAD): 8845

Object ID (CCSDS): 8845

Country: COMMONWEALTH OF INDEPENDENT STATES (CIS)

Current information (Y/N): Y

RCS size: LARGE

Orbital parameters

Period: 101.997 minutes

Inclination: 81.2615 deg

SMA: 7231.314 km

Apoapsis: 882.7 km

Periapsis: 823.659 km

RAAN: 137.9627 deg

Eccentricy: 0.0040823

Argument of periapsis: 102.852 deg

Mean anomaly: 257.7218 deg

Mean motion: 14.11812128 rev/day

Mean motion (dot): 0.00000268 rev/day2

B* drag term: 0.00013897141 1/REarth

Two-line elements (TLE)

Creation date: Dec. 12, 2025, 10:14 a.m.

Reference frame: TEME

Reference center: EARTH

Epoch: Dec. 12, 2025, 4:13 a.m. UTC

TLE line 0: 0 METEOR 1-25

TLE line 1: 1 08845U 76043A 25346.17626669 .00000268 00000-0 13897-3 0 9995

TLE line 2: 2 08845 81.2615 137.9627 0040823 102.8520 257.7218 14.11812128698532

Live tracking on map

Real-time ground track for satellite METEOR 1-25.

In-orbit conjunctions

A list of the most updated potential collisions computed for object METEOR 1-25.

Target Orbit TCA Probability of collision Miss distance Type
NOAA 16 DEB SSO 2025-11-10 18:17:42 0.0001070666 555.0 (m) DEBRIS
CZ-6A DEB SSO 2025-05-31 09:32:42 0.0004717594 291.0 (m) DEBRIS
FENGYUN 1C DEB SSO 2025-03-06 13:34:15 0.0001667105 107.0 (m) DEBRIS
CZ-6A DEB SSO 2024-11-14 10:03:13 0.001982054 107.0 (m) DEBRIS
FENGYUN 1C DEB SSO 2024-11-10 08:16:05 0.0004065733 157.0 (m) DEBRIS

Associated space launch

Meteor meteorological satellite

METEOR 1-25 was lifted into orbit during the mission ‘Vostok 8A92M | Meteor-Priroda 2-1’, on board a Vostok 8A92M space rocket.

The launch took place on May 15, 1976, 1:30 p.m. from 43/3 (43L).

For more information about the launch, click the button.

Launch to space Vostok 8A92M | Meteor-Priroda 2-1
Vostok 8A92M | Meteor-Priroda 2-1

Agency: N/A

Status: Launch Successful

Launch date: May 15, 1976, 1:30 p.m. UTC

Rocket: Vostok 8A92M

Launch pad: 43/3 (43L)

Location: Plesetsk Cosmodrome, Russian Federation

...

Latest news about this satellite

There are no fresh news available about this satellite. Check back as we update our databases every day.


Newsletter sign-up

Weekly statistics, charts and insights to help you stay on top of the space industry.